Погода в Кемчуге

Погода в Кемчуге : погода сейчас, прогноз погоды и архив. Всё, что Вы хотите узнать о погоде в Кемчуге!

Хотите узнать прогноз погоды в Кемчуге? Тогда Вам сюда: Погода в Кемчуге

Поиск расширенной информации на нашем сайте:

Другие новости

Новости СМИ2

Главная страница сайта

Новости сайта

03.07.2017

Напоминаем, что на нашем специализированном сайте Метеоцентр.Азия вы можете получить высокодетализированные автоматические прогнозы погоды по пунктам России, СНГ и мира в авиационном формате (включающие направление и скорость ветра, видимость, явления погоды, количество и форму облачности, нижнюю и верхнюю границу облачности).

Рекомендуем: пластиковая упаковка по низкой цене

Погода в Кемчуге - сегодня

Время (UTC), дата Ветер
(°,м/с) 
Видим.   Явления Облачность Т
(°С)
Тd
(°С)
f(%) Тe
(°С)
Pmin
(гПа)
dP
(гПа)
Po
(мм)
O2
(г/м3)
Тmin Tmax R s Состояние
почвы
15 19.11.17 240 (ЮЗ) 50000 м  {ливн. осадки}  8/8 600 м кучево-дожд. 
[Cb cap]
-2.8 -3.7 94 -6  1021.6  0.4  735  300           
18 19.11.17 270 (З) 4600 м  слаб. ливневой снег  10/10 600 м кучево-дожд. 
[Cb cap]
-3.8 -4.8 93 -7  1022.8  736  301           
21 19.11.17 290 (З) 3{11}  50000 м  {ливн. осадки}  10/10 600 м кучево-дожд. 
[Cb cap]
-6.4 -9 82 -9  1025.6  2.2  737  305           
00 20.11.17 240 (ЮЗ) 5000 м  слаб. ливневой снег  10/10 600 м кучево-дожд. 
[Cb cap]
-7 -7.6 95 -8  1026.7  0.9  738  306  -7    0.4  14  равномерный
сухой снег
100% 
03 20.11.17 230 (ЮЗ) 4000 м  слаб. ливневой снег  8/8 600 м кучево-дожд. 
[Cb cap]
-6.9 -7.4 96 -10  1027.8  1.1  739  306           
06 20.11.17 250 (З) 4{10}  20000 м  позёмок{ливн. осадки}  8/6 600 м кучево-дожд., верхняя 
[Cb cap|Cs]
-7.6 -11.2 75 -11  1028.6  0.7  739  307           
09 20.11.17 250 (З) 4000 м  слаб. ливневой снег  9/9 600 м кучево-дожд. 
[Cb cap]
-7.7 -9.7 86 -10  1029  0.4  740  308           
12 20.11.17 250 (З) 12000 м  слаб. ливневой снег  10/10 600 м кучево-дожд. 
[Cb cap]
-7.9 -8.9 93 -11  1030.8  1.5  741  308    -6.7  0.8     
15 20.11.17 230 (ЮЗ) 13000 м  слаб. ливневой снег  10/10 600 м кучево-дожд. 
[Cb cap]
-8.6 -9.4 94 -11  1031.4  0.6  741  309           
18 20.11.17 220 (ЮЗ) 6000 м  слаб. ливневой снег  10/10 600 м кучево-дожд. 
[Cb cap]
-9.1 -9.5 97 -9  1031.8  0.3  741  310           
21 20.11.17 170 (Ю) 10 км  слаб. ливневой снег  10/10 600 м кучево-дожд. 
[Cb cap]
-8.3 -8.7 97 -8  1031.4  -0.3  741  309           
00 21.11.17 230 (ЮЗ) 9000 м  слаб. ливневой снег  10/10 600 м кучево-дожд. 
[Cb cap]
-7 -7.5 96 -8  1031.1  -0.1  741  307  -9.1    16  равномерный
сухой снег
100% 
03 21.11.17 240 (ЮЗ) 10 км  слаб. ливневой снег  10/10 600 м кучево-дожд. 
[Cb cap]
-4.7 -5.2 96 -8  1031  0.4  741  305           
06 21.11.17 220 (ЮЗ) 4000 м  слаб. ливневой снег  10/10 600 м кучево-дожд. 
[Cb cap]
-3.9 -4.6 95 -6  1030.4  -0.5  741  303           
09 21.11.17 220 (ЮЗ) 4000 м  слаб. ливневой снег  10/10 600 м кучево-дожд. 
[Cb cap]
-4 -4.4 97 -7  1030.1  -0.4  741  303           
12 21.11.17 240 (ЮЗ) 10 км  слаб. ливневой снег  10/10 600 м кучево-дожд. 
[Cb cap]
-3.9 -4.4 96 -7  1030.2  0.2  741  303    -3.5     
15 21.11.17 240 (ЮЗ) 8000 м  слаб. ливневой снег  10/10 600 м кучево-дожд. 
[Cb cap]
-4.1 -4.4 98 -5  1029.9  -0.4  741  303           
18 21.11.17 220 (ЮЗ) 6000 м  слаб. ливневой снег  10/10 600 м кучево-дожд. 
[Cb cap]
-4 -4.4 97 -6  1029.1  -0.7  740  303           
21 21.11.17 220 (ЮЗ) 6000 м  слаб. ливневой снег  10/10 600 м кучево-дожд. 
[Cb cap]
-4 -4.3 98 -7  1027.4  -1.7  739  303           
00 22.11.17 200 (Ю) 9000 м  слаб. ливневой снег  10/10 600 м кучево-дожд. 
[Cb cap]
-4.6 -5 97 -7  1027.2  -3  737  302  -4.6    21  равномерный
сухой снег
100% 
03 22.11.17 250 (З) 4000 м  слаб. ливневой снег  10/10 600 м кучево-дожд. 
[Cb cap]
-4.4 -4.8 97 -8  1022.8  -1.4  736  302  -4.7         
06 22.11.17 280 (З) 4000 м  слаб. ливневой снег  10/10 600 м кучево-дожд. 
[Cb cap]
-3.2 -3.7 96 -6  1024.9  2.2  737  301           
09 22.11.17 290 (З) 4000 м  слаб. ливневой снег  10/10 600 м кучево-дожд. 
[Cb cap]
-3 -3.4 97 -6  1028.2  3.2  740  302           
12 22.11.17 240 (ЮЗ) 12000 м  слаб. ливневой снег  10/10 600 м кучево-дожд. 
[Cb cap]
-3.4 -3.9 96 -5  1030.4  2.1  741  303    -2.8     
15 22.11.17 270 (З) 4600 м  слаб. ливневой снег  10/10 600 м кучево-дожд. 
[Cb cap]
-3.9 -4.4 96 -5  1031  0.5  742  304           
Время (UTC), дата Ветер
(°,м/с) 
Видим.   Явления Облачность Т
(°С)
Тd
(°С)
f(%) Тe
(°С)
Pmin
(гПа)
dP
(гПа)
Po
(мм)
O2
(г/м3)
Тmin Tmax R s Состояние
почвы

Для получения пояснительной информации подведите курсор к названию столбца.

ПОГОДА в Кемчуге - архив

Всё, что Вы хотите узнать о погоде в Кемчуге - удобно и подробно!

Выберите нужную дату (начиная с 1 января 2015* года) и нажмите кнопку "Найти".
Будут отображены архивные сводки погоды по пункту Кемчуг, начиная с указанной даты.


Отображать данные в формате CSV (для использования в таблицах Excel)


Внимание! Наш архив погоды предназначен исключительно для личного некоммерческого использования в познавательных целях. Если Вам необходимы официальные справки о состоянии погоды (для производственных, юридических, коммерческих и т.п. целей), обращайтесь в органы Росгидромета.

*Примечание: данная дата относится к архиву по метеостанциям СССР (Россия, СНГ, Балтия).
Архив по метеостанциям Зарубежной Европы и Азии (кроме Китая) хранится 10 дней, по другим регионам земного шара (Китай, Африка, Америка, Австралия, Океания) - 1 день.

Кемчуг - район местоположения метеостанции


Название, широта, долгота, высота метеостанции:
Кемчуг 56.1°ш. 91.7°д. 332 м над ур. моря [Российская Федерация]

Дополнительная информация

В oтличие oт бoльшинства пoгoдных сайтoв мы публикуем пoдрoбную метеoинфoрмацию в детальнoм прoфессиoнальнoм фoрмате.

Характеристики температуры и влажнoсти вoздуха измеряются на высoте 2 м в тени вдали oт зданий и деревьев.
Скoрoсть ветра измеряется на высoте 10 м (на урoвне рoста челoвека скoрoсть ветра ниже в 1.5-2 раза). Если метеoстанция нахoдится в гoрoде или в лесу, тo скoрoсть ветра занижена на 2-4 м/с пo сравнению с oткрытым местoм. Скoрoсть ветра над акватoриями крупных рек и oзёр, а также на вершинах хoлмoв на 2-5 м/с выше, чем в oбычных услoвиях.
Атмoсфернoе давление в разных тoчках местнoсти мoжет значительнo oтличаться oт давления на метеoстанции, в зависимoсти oт услoвий рельефа (при пoдъёме на 10 м давление пoнижается примернo на 1 мм рт.ст.).